Presure
169 155 154 159 167 174 158 154 157 161 153 159 149 163 160 164 158 168 157 170 156 141 155 157 168 162 152 169 150 168 154 177 161 179 154 183 176 197 180 202 174 161 153 183 210
168 162 167 146 163 169 168 164 158 152 158 151 161 162 154 162 168 150 166 165 165 164 173 154 173 151 171 162 169 166 172 170 179 167 190 159 188 164 178 176 200 182 154 183 169
165 161 159 162 144 156 153 152 158 153 168 169 165 157 168 158 169 174 164 164 159 121 162 162 171 171 165 169 170 173 170 174 175 178 188 166 175 173 148 172 176 196 192 212 207
168 157 161 164 170 159 152 151 154 161 161 162 162 169 170 158 161 149 166 165 124 159 174 162 162 174 161 166 179 160 168 171 174 178 196 190 197 198 162 205 167 198 178 209 192
150 147 150 143 156 149 154 163 168 173 164 166 175 168 154 133 159 150 168 178 163 166 174 154 165 165 164 174 167 162 168 171 184 185 194 186 186 183 195 201 148 209 215 201 181
167 153 136 158 164 168 163 156 163 169 170 177 186 174 179 173 166 168 174 174 155 171 163 170 171 166 171 164 158 167 170 179 183 183 182 184 188 196 216 191 190 193 193 210 259
156 170 164 179 170 154 177 161 160 169 172 171 179 175 172 175 177 163 176 177 181 183 175 179 163 177 159 161 164 180 181 184 179 183 173 179 197 185 218 204 210 74 486 477 461
173 177 173 171 159 167 174 178 167 172 177 169 170 172 182 176 173 181 178 180 177 173 159 168 173 163 166 160 167 188 177 178 187 177 183 187 192 215 201 216 254 463 467 473 467
186 183 178 178 175 177 185 179 180 188 178 180 177 190 185 173 178 172 179 178 156 159 163 168 170 155 171 181 188 182 175 172 178 179 179 189 190 195 456 413 459 441 453 417 419
197 242 200 199 204 189 187 187 187 176 191 180 192 196 188 185 173 186 175 160 169 161 168 166 164 186 185 186 189 172 170 183 161 181 189 192 290 219 259 467 430 424 403 302 372
206 205 206 221 193 184 203 183 198 196 194 194 177 183 175 135 186 170 177 174 160 176 161 166 192 173 183 194 174 168 171 162 178 183 191 195 206 485 302 391 408 396 388 386 388
203 183 203 217 214 209 208 206 197 203 184 187 203 181 190 186 175 183 161 168 187 163 178 232 189 180 182 157 182 175 164 176 187 191 195 235 348 473 463 418 407 384 204 318 150
272 236 154 314 191 261 192 199 206 191 218 166 188 183 185 178 159 162 176 161 174 199 198 184 183 145 157 187 179 162 166 194 212 190 275 324 349 446 429 381 399 374 367 276 172
228 199 200 210 307 307 202 289 196 205 219 191 159 194 182 167 161 171 180 187 187 197 177 197 169 148 173 176 178 163 181 178 250 210 331 312 384 429 394 374 408 376 347 344 95
222 213 280 300 231 297 285 303 234 212 198 204 204 167 159 198 170 154 193 138 155 167 200 209 159 170 168 187 169 195 210 217 248 334 330 337 344 414 401 369 347 384 348 349 330
290 297 299 294 238 266 250 287 197 196 201 154 183 199 178 137 169 178 177 148 174 199 206 175 174 177 180 166 188 197 189 209 220 340 324 347 365 478 415 372 353 396 368 342 328
289 220 238 218 216 181 166 208 193 160 203 201 164 129 172 135 176 171 188 147 231 204 177 172 151 178 167 168 176 218 238 257 277 338 326 343 358 397 416 381 354 328 379 343 324
266 204 207 257 218 223 198 139 150 162 151 212 164 172 151 158 161 198 176 176 204 198 176 162 171 165 156 172 177 183 180 233 254 337 331 334 355 386 430 415 360 337 394 347 329
234 205 199 204 164 127 206 148 160 153 184 183 191 173 182 186 187 164 199 203 168 168 182 189 173 174 158 171 185 199 195 252 250 336 345 343 368 445 447 437 384 363 327 360 326
219 154 133 143 206 209 152 181 174 147 200 201 160 114 178 139 145 206 181 200 184 155 156 165 166 159 207 190 212 243 254 268 257 338 332 340 338 412 434 427 414 404 340 390 318
199 179 136 149 138 153 206 153 168 165 144 176 149 193 123 183 214 197 138 151 157 172 197 189 176 187 173 193 201 246 261 265 265 334 324 340 368 428 431 414 421 431 417 414 335
146 134 136 124 189 165 150 190 138 152 185 132 198 147 183 210 139 191 181 205 159 189 169 185 211 171 203 215 245 248 263 278 266 329 329 339 366 417 428 408 425 427 441 326 402
128 196 196 130 134 195 159 133 196 168 187 138 171 175 208 132 141 162 193 174 164 173 193 209 178 214 181 180 245 200 253 245 306 338 324 338 354 425 421 421 426 412 415 474 482
198 133 202 150 127 167 202 133 202 188 159 166 210 142 153 144 141 150 154 141 165 197 205 187 202 219 201 241 187 255 258 246 300 336 325 338 384 440 416 417 415 414 409 450 435
143 137 149 141 138 142 170 190 137 191 144 151 129 138 205 118 144 138 160 120 192 180 165 189 184 200 217 250 184 239 264 249 337 332 326 343 359 444 419 412 405 404 403 432 454
133 111 137 197 185 139 159 124 203 205 183 118 148 202 153 154 172 180 124 126 148 196 219 178 213 215 244 238 235 252 280 326 339 331 328 342 350 420 410 410 409 407 396 422 435
195 208 205 116 144 139 193 186 140 189 129 145 139 172 151 129 140 151 150 143 140 146 157 177 224 188 208 235 220 252 256 333 343 330 333 335 350 430 419 414 409 405 399 414 420
Wind_Speed
23 17 20 24 29 29 23 23 27 31 27 32 28 35 30 31 32 32 34 33 41 40 42 45 40 45 50 41 52 43 56 47 65 55 70 61 64 55 69 53 84 83 68 86 73
28 23 30 20 29 32 30 31 30 29 35 34 39 38 34 34 35 34 34 35 37 37 35 49 40 45 43 48 46 47 47 54 51 63 54 71 59 84 72 78 70 89 79 92 83
30 25 25 28 23 25 25 27 32 32 39 40 40 38 41 36 40 39 37 35 40 36 41 43 43 46 47 46 47 49 53 54 59 58 64 60 74 73 81 76 90 77 89 84 88
32 24 26 29 34 30 29 30 32 37 39 40 40 42 42 37 38 37 41 41 36 42 45 45 47 48 47 50 54 57 58 60 63 63 69 65 71 75 92 81 96 82 103 85 85
26 27 28 29 32 30 32 37 38 41 38 42 45 42 36 30 39 40 44 47 44 46 48 46 49 48 51 54 54 59 62 67 71 70 72 71 73 74 84 83 91 75 80 85 107
38 31 29 35 37 38 36 34 37 39 40 43 44 44 43 43 43 45 47 47 44 48 47 51 51 51 54 54 59 63 67 69 71 71 75 75 84 84 96 62 71 76 82 97 110
35 40 38 47 42 35 43 37 37 41 43 42 43 42 43 43 45 44 48 48 49 49 51 52 50 55 55 57 62 65 67 71 74 77 70 57 96 64 92 88 101 21 52 57 62
44 46 43 42 37 41 43 45 40 43 44 43 42 43 45 43 43 46 48 49 48 48 45 52 53 53 56 58 64 66 69 71 77 77 88 74 84 107 87 104 96 49 43 47 51
52 48 46 47 44 45 47 45 46 47 45 45 45 47 45 42 44 44 48 48 42 45 49 51 55 50 61 63 64 64 70 73 83 84 82 79 71 88 57 61 48 46 38 43 48
51 59 53 53 54 50 48 48 50 42 49 44 49 49 45 44 43 48 45 41 48 48 52 54 55 60 62 61 63 70 75 81 58 91 92 91 103 114 93 42 45 38 33 37 44
49 50 51 53 49 45 49 44 48 49 49 48 42 42 41 29 45 41 43 46 48 52 52 56 60 61 59 60 68 75 81 66 93 88 97 97 103 44 77 55 43 33 34 37 46
45 41 45 51 48 47 45 45 47 48 45 45 46 40 44 43 41 43 44 49 51 52 55 61 57 56 60 57 67 76 68 89 100 101 98 105 92 44 34 39 36 37 22 35 48
36 33 20 29 44 36 43 41 43 38 45 33 43 42 43 41 35 44 46 50 53 56 56 56 52 44 60 62 72 65 75 85 97 97 103 93 84 46 45 42 32 34 31 29 30
44 37 38 37 22 23 43 31 41 41 41 42 33 43 39 41 44 44 46 48 52 56 54 55 50 49 64 70 77 74 95 88 100 104 89 91 73 41 53 48 29 33 34 37 29
39 36 26 17 31 19 25 25 41 37 39 39 41 34 41 43 43 39 48 33 47 48 57 56 51 67 70 66 68 79 92 99 97 93 87 80 74 47 44 48 40 34 39 40 42
33 26 23 20 26 22 26 24 31 36 38 31 37 40 41 33 48 41 47 43 50 55 56 52 58 61 66 74 80 87 94 97 104 90 84 76 70 32 39 44 42 37 43 40 44
34 29 26 27 26 21 25 33 33 29 37 39 34 20 36 24 49 39 49 45 58 51 46 56 63 66 73 76 82 92 101 101 105 90 84 77 69 52 39 39 43 38 41 43 47
34 27 27 22 28 26 29 21 30 36 31 35 41 37 33 44 39 51 48 50 51 51 47 64 68 72 59 82 87 87 82 91 100 86 82 75 70 52 41 37 42 39 45 48 52
32 27 28 25 22 20 29 30 34 26 37 38 34 42 46 45 46 47 53 54 47 50 47 52 63 76 67 79 85 94 92 101 97 85 78 77 70 39 35 38 37 42 37 51 55
30 18 14 22 29 30 31 35 37 28 40 39 40 32 44 30 36 61 46 55 44 53 64 64 72 67 81 84 95 108 109 112 104 87 80 77 71 43 37 44 36 37 39 54 58
29 31 16 26 20 31 31 24 43 36 25 42 31 45 27 48 58 54 36 52 58 60 61 57 74 68 85 86 91 109 112 108 107 85 83 77 69 42 41 44 37 34 35 39 66
19 15 18 23 31 27 35 38 25 37 38 25 48 38 48 53 39 54 44 63 47 65 68 56 79 80 79 93 110 111 114 114 110 90 82 79 65 39 40 42 38 35 33 39 60
21 40 40 17 21 42 35 24 43 37 43 34 48 43 54 30 46 56 59 54 57 70 67 77 79 82 83 72 106 86 103 102 106 85 82 80 75 39 44 40 36 34 31 28 24
41 22 45 32 21 36 46 24 46 47 43 39 47 36 43 43 48 45 60 48 67 61 72 70 69 85 94 111 78 112 108 103 104 84 85 79 68 42 38 40 37 33 32 27 30
32 25 29 26 23 26 40 43 28 46 35 30 24 39 57 39 46 43 55 45 69 73 65 73 77 85 101 112 77 105 114 109 88 86 85 77 73 35 43 37 36 32 33 26 23
32 30 28 52 50 26 39 22 56 56 51 33 46 60 50 52 54 58 44 47 69 71 94 78 86 82 111 107 108 110 115 100 86 84 82 79 74 41 42 40 36 32 32 25 25
51 54 54 25 35 26 56 53 36 55 29 44 41 53 50 32 46 64 63 48 52 60 70 79 101 80 93 107 95 111 113 92 79 81 81 78 76 39 38 38 36 33 29 26 26
Wind_Direction
287 296 284 297 292 274 284 284 281 280 281 280 275 281 278 278 271 273 261 266 255 268 269 260 263 262 262 261 264 267 255 264 256 253 261 265 261 262 247 267 257 259 257 254 252
288 291 283 267 284 281 281 281 283 281 281 278 283 280 277 279 279 268 272 270 264 272 274 262 275 273 271 259 267 267 270 262 270 260 279 262 267 257 265 259 259 253 257 253 251
278 284 282 282 266 275 274 276 279 278 279 280 282 278 282 281 280 280 273 270 267 280 274 268 277 278 275 278 278 282 276 278 268 269 282 271 248 256 267 262 259 255 249 263 257
276 276 277 274 275 272 274 275 278 277 278 278 277 278 279 278 277 274 279 277 277 274 281 273 278 284 275 283 291 270 283 283 282 281 291 280 285 282 252 274 260 257 253 261 257
259 257 264 268 269 269 272 274 274 275 277 275 276 275 275 279 274 282 282 284 279 282 285 281 285 285 287 291 284 283 287 286 290 288 289 280 276 263 273 274 267 273 268 261 253
274 263 273 267 270 274 272 271 275 276 277 280 282 277 278 278 282 280 283 283 284 286 286 284 286 289 291 285 287 288 288 290 290 287 285 282 284 284 285 290 290 285 273 277 262
264 271 267 276 271 266 275 268 268 275 278 275 277 274 275 278 281 286 285 285 287 288 287 289 293 293 287 289 291 294 293 290 288 288 292 290 290 295 291 307 296 272 266 259 254
274 275 272 274 271 269 271 272 267 271 274 272 276 276 280 279 282 285 285 288 287 288 293 291 291 288 289 294 296 294 290 292 294 295 292 295 294 290 311 299 294 278 270 253 242
278 275 273 272 272 272 272 271 272 273 272 274 276 279 279 282 283 285 289 289 294 294 294 295 297 298 300 297 294 294 294 298 293 294 298 300 311 314 293 293 289 287 260 249 246
278 282 276 275 274 272 272 270 271 271 274 275 278 278 282 283 285 289 288 292 288 295 296 298 298 298 298 296 300 297 297 297 310 296 304 307 312 302 308 293 289 287 262 250 251
283 282 280 279 275 274 268 272 271 271 272 274 279 282 283 289 287 289 289 291 295 293 301 300 300 296 299 300 296 301 301 315 298 306 303 313 312 305 309 299 287 278 254 250 232
289 285 282 282 275 270 266 267 270 268 276 277 275 280 281 283 287 290 293 292 293 299 300 307 300 303 301 311 299 298 313 303 295 305 313 313 319 304 297 296 281 264 244 236 249
305 295 304 290 280 277 273 265 265 271 267 282 279 284 284 288 300 294 294 302 298 307 306 303 305 310 313 306 298 316 317 309 314 308 316 321 324 305 303 301 280 262 243 236 238
298 292 289 288 298 292 271 261 267 268 269 277 297 281 287 296 298 295 299 303 305 306 303 307 309 321 301 299 297 320 300 313 327 316 325 322 331 304 304 301 271 251 249 228 235
297 294 307 307 285 288 274 258 259 268 275 277 277 296 302 291 294 311 305 313 313 305 305 308 310 299 302 305 313 312 320 317 330 329 330 329 328 317 297 298 292 246 240 233 228
321 321 317 298 285 284 273 257 273 279 276 309 289 284 289 312 295 305 299 306 311 307 307 299 304 302 306 313 306 319 311 320 324 331 333 332 333 306 293 293 289 248 233 227 225
317 296 298 292 288 299 298 276 282 301 278 281 303 325 306 339 294 310 300 327 303 306 299 305 324 312 311 315 314 332 332 335 337 336 333 334 334 324 296 287 282 278 240 222 218
314 293 294 294 288 280 285 309 297 294 316 282 293 304 317 310 322 301 303 316 303 309 292 306 301 312 324 314 314 321 325 330 338 337 335 332 333 324 303 288 276 272 238 219 215
312 291 290 291 298 283 283 319 306 308 285 288 292 290 290 299 302 311 306 307 320 303 310 322 305 308 326 319 311 319 316 332 335 337 335 333 334 310 307 293 274 263 259 219 217
304 293 287 305 287 286 304 293 284 302 294 297 304 325 300 327 313 304 306 311 311 329 324 314 308 325 325 319 324 333 332 337 334 337 337 334 335 321 300 295 282 264 251 228 212
286 273 303 299 320 301 290 294 287 297 311 293 318 295 313 309 302 309 328 320 322 315 318 320 319 328 312 315 319 333 334 336 336 336 336 334 336 313 299 296 291 280 259 244 213
278 278 292 277 287 297 307 281 305 289 293 317 298 318 301 301 336 304 303 316 323 325 305 311 328 313 325 319 333 333 333 335 336 335 335 334 334 305 294 297 293 287 281 234 223
262 278 279 278 305 283 296 305 287 296 294 328 302 303 299 322 311 311 315 306 323 324 327 328 321 333 313 326 331 319 334 336 335 333 333 333 332 301 305 298 297 285 269 304 266
280 266 284 284 283 290 283 291 286 290 298 294 293 320 313 305 321 319 323 336 330 321 328 319 327 338 329 333 327 333 333 334 334 332 333 332 329 304 300 297 300 294 275 292 242
261 267 275 271 277 288 287 290 294 296 313 304 310 323 303 318 326 330 323 332 325 317 327 316 325 334 331 329 328 331 333 332 332 331 332 333 333 306 297 302 296 288 277 281 255
259 285 269 281 284 290 288 279 293 294 294 285 311 303 320 322 308 314 327 328 333 321 322 312 331 335 328 332 330 331 330 332 331 329 330 332 333 303 308 299 295 288 273 270 247
272 275 277 289 281 284 286 290 291 293 284 313 318 308 310 310 331 320 324 326 336 334 334 312 328 331 321 330 330 331 333 329 330 328 329 332 332 301 297 291 290 282 268 261 239